Skip Page Navigation
NASA JPL Caltech
NASA Logo - Jet Propulsion Laboratory + View the NASA Portal
+ Center for Near-Earth Object Studies
JPL Home Earth Solar System Stars & Galaxies Technology
JPL Solar System Dynamics
BODIES ORBITS EPHEMERIDES TOOLS PHYSICAL DATA DISCOVERY FAQ SITE MAP
IMPORTANT: The SSD Announcement email list is now available. Major changes are coming in the near future, including possible hostname and/or URL changes. To be notified of such changes, subscribe to this email list.

Please visit this page for more details.


JPL Small-Body Database Browser
Search: [ help ]  
4238 Audrey (1980 GF)
Classification: Main-belt Asteroid          SPK-ID: 2004238
Ephemeris | Orbit Diagram | Orbital Elements | Mission Design | Physical Parameters | Discovery Circumstances ]

[ show orbit diagram ]
Orbital Elements at Epoch 2458600.5 (2019-Apr-27.0) TDB
Reference: JPL 32 (heliocentric ecliptic J2000)
 Element Value Uncertainty (1-sigma)   Units 
e .07454727515662582 3.343e-08  
a 2.406603287691126 7.9335e-09 au
q 2.227197570210775 8.0664e-08 au
i 1.848178870593687 3.5386e-06 deg
node 144.9761560805797 0.00011245 deg
peri 40.85673951676802 0.00011494 deg
M 164.1699583745675 2.4996e-05 deg
tp 2457978.634630196834
(2017-Aug-13.13463020)
9.3606e-05 TDB
period 1363.65712305511
3.73
6.743e-06
1.846e-08
d
yr
n .2639959810377138 1.3054e-09 deg/d
Q 2.586009005171476 8.5249e-09 au
  Orbit Determination Parameters
   # obs. used (total)      2428  
   data-arc span      18454 days (50.52 yr)  
   first obs. used      1969-04-22  
   last obs. used      2019-10-31  
   planetary ephem.      DE431  
   SB-pert. ephem.      SB431-N16  
   condition code      0  
   norm. resid. RMS      .48838  
   source      ORB  
   producer      Otto Matic  
   solution date      2019-Nov-07 02:34:12  

Additional Information
 Earth MOID = 1.22924 au 
 Jupiter MOID = 2.37078 au 
 T_jup = 3.518 
[ show covariance matrix ]

Ephemeris | Orbit Diagram | Orbital Elements | Mission Design | Physical Parameters | Discovery Circumstances ]

Physical Parameter Table
Parameter Symbol Value Units Sigma Reference Notes
absolute magnitude H 13.2   n/a MPO347556  
diameter diameter 5.707 km 0.080 urn:nasa:pds:neowise_diameters_albedos::2.0[mainbelt] (http://adsabs.harvard.edu/abs/2014ApJ...791..121M)  
geometric albedo albedo 0.159   0.018 urn:nasa:pds:neowise_diameters_albedos::2.0[mainbelt] (http://adsabs.harvard.edu/abs/2014ApJ...791..121M)  

4238 Audrey           Discovered 1980 Apr. 13 by A. Mrkos at Klet.
Brought up in wartime Holland, Audrey Hepburn (1929-1993) became a highly acclaimed film actress. After her 1951 debut on Broadway in Gigi, her film successes included Roman Holiday, Funny Face, Breakfast at Tiffany's, Charade, My Fair Lady and Wait Until Dark. She later worked to improve the lot of children in Africa.
NOTE: some special characters may not display properly (any characters within {} are an attempt to place the proper accent above a character)
Reference: 19991123/MPCPages.arcLast Updated: 2010-06-11

Alternate Designations
 1980 GF = 1969 HA = 1980 DS5 = 1980 FO10 = 1982 YL2 = 1984 JB2 = 1984 KD1 
Ephemeris | Orbit Diagram | Orbital Elements | Mission Design | Physical Parameters | Discovery Circumstances ]
ABOUT SSD CREDITS/AWARDS PRIVACY/COPYRIGHT GLOSSARY LINKS
FirstGov
(server date/time)  
NASA Home Page
Site Manager:   Ryan S. Park
Webmaster  Alan B. Chamberlin